{"data":{"norad_id":68481,"epoch":"2026-05-24T19:54:10.913472Z","epoch_age_seconds":92900,"freshness":"FRESH","line1":"1 68481U 26067BT  26144.82929298  .00001439  00000+0  14713-3 0  9999","line2":"2 68481  97.7656 103.5138 0004004  52.2862 307.8719 14.92085050  8246","mean_motion":14.9208505,"eccentricity":0.0004004,"inclination_deg":97.7656,"raan_deg":103.5138,"arg_perigee_deg":52.2862,"mean_anomaly_deg":307.8719,"bstar":0.00014713,"rev_number":824,"period_min":96.509243893302,"perigee_km":588.64459244525,"apogee_km":594.22582587034,"semimajor_km":6969.5722091578,"source":"CELESTRAK","updated_at":"2026-05-25T13:38:07.852347Z"}}